Regional Weather Roundup
Issued by NWS

Home | Current Version | Previous Version | Text Only | Print | Product List | Glossary On
Versions: 1 2 3 4 5 6 7 8 9 10 11 12 13 14 15 16 17 18 19 20 21 22 23 24 25 26 27 28 29 30 31 32 33 34 35 36 37 38 39 40 41 42 43 44 45 46 47 48 49 50
171
ASUS44 KJAN 282303
RWRMS

MISSISSIPPI HOURLY WEATHER ROUNDUP
NATIONAL WEATHER SERVICE JACKSON MS
500 PM CST WED JAN 28 2015

NOTE: "FAIR: INDICATES FEW OR NO CLOUDS BELOW 12,000 FEET WITH NO
SIGNIFICANT WEATHER AND/OR OBSTRUCTIONS TO VISIBILITY.

MSZ001>002-007>008-010>013-018>021-025>028-034>036-290000-
NORTHWEST MISSISSIPPI

CITY           SKY/WX    TMP DP  RH WIND       PRES   REMARKS
CLARKSDALE     FAIR      59  41  51 S8        30.15F
CLEVELAND      FAIR      61  44  54 SE6       30.14F
GREENWOOD      CLEAR     63  36  36 SE10      30.16F
GREENVILLE     CLEAR     63  40  42 SE12      30.13F
GRENADA        FAIR      59  37  44 SE6       30.17S
OLIVE BRANCH   PTCLDY    57  34  41 S10       30.15S
OXFORD         FAIR      57  32  38 S8        30.18F
TUNICA         CLEAR     55  36  47 SE9       30.14F
$$

MSZ003>006-009-014>017-022>024-029>033-037>039-290000-
NORTHEAST MISSISSIPPI

CITY           SKY/WX    TMP DP  RH WIND       PRES   REMARKS
COLUMBUS AFB   CLEAR     56  29  36 SW5       30.22S
CORINTH        FAIR      54  32  43 S6        30.18S
GOLDN TRIANGLE CLEAR     55  34  44 S9        30.22S
STARKVILLE     FAIR      55  32  41 SE5       30.21S
TUPELO         CLEAR     54  31  41 S8        30.20F
$$

MSZ040-058-290000-
CENTRAL MISSISSIPPI

CITY           SKY/WX    TMP DP  RH WIND       PRES   REMARKS
JACKSON INTL   PTCLDY    65  35  33 SE8       30.18S
JACKSON HAWKNS NOT AVBL
MERIDIAN KEY   CLEAR     62  25  24 SE5       30.22R
MERIDIAN NAS   PTCLDY    61  27  27 SE3       30.23R
RAYMOND        FAIR      68  64  88 SE6       30.18S
VICKSBURG      CLEAR     68  40  35 SE8       30.16S
$$

MSZ059>079-290000-
SOUTH MISSISSIPPI

CITY           SKY/WX    TMP DP  RH WIND       PRES   REMARKS
BROOKHAVEN     FAIR      66  39  37 CALM      30.21S
HATTIESBURG    CLEAR     65  34  31 SE3       30.23R
MCCOMB         CLEAR     66  37  34 S8        30.20S
NATCHEZ        CLEAR     70  36  28 S8        30.18S
PINE BELT      CLEAR     64  36  34 S5        30.24R
$$

MSZ080>082-290000-
COASTAL MISSISSIPPI

CITY           SKY/WX    TMP DP  RH WIND       PRES   REMARKS
BAY ST LOUIS   CLEAR     61  39  44 S5        30.25
BILOXI         CLEAR     55  45  68 SW6       30.24S
PASCAGOULA     CLEAR     56  42  59 SW3       30.24R
GULFPORT       CLEAR     56  43  61 S5        30.24R
$$



USA.gov is the U.S. government's official web portal to all federal, state and local government web resources and services.